This is the latest recevied weather packets stored in our database for station/object WS2Z. If no packets are shown the sender has not sent any weather packets the latest 10 day(s).
| Time | Temp. | Humidity | Pressure | Rain* | Wind** | Luminosity | Snow |
|---|---|---|---|---|---|---|---|
| 1777477947 | 28.89° C | 56% | 1017.7 hPa | 0 mm | - | 199 W/m² | - |
| 1777477643 | 28.33° C | 57% | 1017.6 hPa | 0 mm | - | 367 W/m² | - |
| 1777477340 | 28.33° C | 58% | 1018 hPa | 0 mm | - | 209 W/m² | - |
| 1777477036 | 28.89° C | 57% | 1017.7 hPa | 0 mm | - | 140 W/m² | - |
| 1777476734 | 30° C | 55% | 1017.7 hPa | 0 mm | - | 72 W/m² | - |
| 1777476430 | 30° C | 58% | 1017.7 hPa | 0 mm | - | 87 W/m² | - |
| 1777476127 | 30° C | 53% | 1017.6 hPa | 0 mm | - | 137 W/m² | - |
| 1777475823 | 29.44° C | 51% | 1017.6 hPa | 0 mm | - | 107 W/m² | - |
| 1777475519 | 29.44° C | 55% | 1017.9 hPa | 0 mm | - | 70 W/m² | - |
| 1777475215 | 29.44° C | 55% | 1017.9 hPa | 0 mm | - | 127 W/m² | - |
| 1777474911 | 28.89° C | 58% | 1017.9 hPa | 0 mm | - | 301 W/m² | - |
| 1777474606 | 28.89° C | 61% | 1017.8 hPa | 0 mm | - | 209 W/m² | - |
| 1777474303 | 28.33° C | 62% | 1017.8 hPa | 0 mm | - | 190 W/m² | - |
| 1777474000 | 27.78° C | 64% | 1017.7 hPa | 0 mm | - | 139 W/m² | - |
| 1777473698 | 28.33° C | 62% | 1017.6 hPa | 0 mm | - | 66 W/m² | - |
| 1777473394 | 27.78° C | 63% | 1017.6 hPa | 0 mm | - | 64 W/m² | - |
| 1777473090 | 28.33° C | 61% | 1017.6 hPa | 0 mm | - | 65 W/m² | - |
| 1777472787 | 28.89° C | 66% | 1017.7 hPa | 0 mm | - | 82 W/m² | - |
| 1777472483 | 28.33° C | 66% | 1017.7 hPa | 0 mm | - | 309 W/m² | - |
| 1777472181 | 28.33° C | 67% | 1017.6 hPa | 0 mm | - | 478 W/m² | - |
| 1777471881 | 28.33° C | 66% | 1017.4 hPa | 0 mm | - | 547 W/m² | - |
| 1777471578 | 27.78° C | 67% | 1017.4 hPa | 0 mm | - | 539 W/m² | - |
| 1777471275 | 27.78° C | 70% | 1017.5 hPa | 0 mm | - | 515 W/m² | - |
| 1777470971 | 27.78° C | 69% | 1017.4 hPa | 0 mm | - | 510 W/m² | - |
| 1777470668 | 27.22° C | 71% | 1017.4 hPa | 0 mm | - | 491 W/m² | - |
* Rain latest hour (hover to see other rain measurements)
** Current wind speed in m/s (hover to see current wind gust speed)